Regional Weather Roundup
Issued by NWS

Home | Current Version | Previous Version | Graphics & Text | Print | Product List | Glossary On
Versions: 1 2 3 4 5 6 7 8 9 10 11 12 13 14 15 16 17 18 19 20 21 22 23 24 25 26 27 28 29 30 31 32 33 34 35 36 37 38 39 40 41 42 43 44 45 46 47 48 49 50
000
ASUS43 KLOT 231010
RWRIL

ILLINOIS REGIONAL WEATHER ROUNDUP
NATIONAL WEATHER SERVICE CHICAGO/ROMEOVILLE IL
500 AM CDT WED JUL 23 2014

NOTE: "FAIR" INDICATES FEW OR NO CLOUDS BELOW 12,000 FEET WITH NO
SIGNIFICANT WEATHER AND/OR OBSTRUCTIONS TO VISIBILITY.

* THESE STATIONS ARE NOT UNDER NWS QUALITY CONTROL. THEY ALSO MAY NOT
  REPORT WEATHER SUCH AS PRECIPITATION OR FOG.

ILZ001-002-007-009-015-016-024-231100-
NORTHWEST ILLINOIS

CITY           SKY/WX    TMP DP  RH WIND       PRES   REMARKS
MOLINE         CLEAR     71  64  78 N6        30.08R
STERLING*      CLEAR     68  63  83 E9        30.10R
SAVANNA*       CLEAR     68  62  81 N7        30.11R
$$

ILZ003-004-008-010-011-017-018-231100-
NORTH CENTRAL ILLINOIS

CITY           SKY/WX    TMP DP  RH WIND       PRES   REMARKS
ROCKFORD       PTCLDY    65  58  78 NE10      30.13R
FREEPORT*      CLEAR     61  59  92 N5        30.14R
ROCHELLE*      CLEAR     64  58  80 NE10      30.10R
DE KALB*       CLEAR     62  56  82 N10       30.10R
PERU*          PTCLDY    69  63  81 NE9       30.07R
$$

ILZ005-006-012>014-019>023-231100-
NORTHEAST ILLINOIS

CITY           SKY/WX    TMP DP  RH WIND       PRES   REMARKS
CHICAGO-OHARE  PTCLDY    66  52  60 N16G24    30.08R
CHICAGO-MIDWAY PTCLDY    67  58  72 N18G25    30.07R
AURORA         CLEAR     64  57  78 N8        30.08R
LANSING*       CLOUDY    65  58  79 N13       30.05S
JOLIET*        PTCLDY    65  54  69 N12G17    30.07S
WAUKEGAN       CLEAR     62  54  74 N9G18     30.08R
DUPAGE AIRPORT CLEAR     63  56  78 NE10      30.08R
KANKAKEE*      MOCLDY    66  63  89 N5        30.05R
WHEELING       PTCLDY    65  55  70 VRB7      30.10R
MORRIS*        CLEAR     65  60  82 N3        30.06S
ROMEOVILLE*    PTCLDY    64  55  72 NE15G23   30.07S
NORTHERLY ISL    N/A     64  56  75 N17         N/A
$$

LMZ740>746-231100-
SOUTHERN LAKE MICHIGAN

STATION/POSITION SKY/WX   TEMP    WIND        PRES    VSBY  WAVE
                          AIR SEA DIR/SP/G                  HT/PER
                          (F)     (DEG/KT/KT) (MB)    (MI)  (FT/S)
SOUTHERN BUOY              61 60  340/ 19/ 21 1017.5R         5/ 7
WAUKEGAN HARBOR            63      10/ 17/ 23 1019.6R
HARRISON CRIB              65     350/ 25/ 28   N/A
BURNHAM HARBOR             64     340/ 16/ 19   N/A
CALUMET HARBOR             65     340/ 13/ 20 1017.0R
BURNS HARBOR               69      10/ 19/ 23 1016.9
MICHIGAN CITY              66     350/ 22/ 26   N/A
$$

ILZ025>027-034>036-040-047-049-050-058-095>099-231100-
WEST-CENTRAL ILLINOIS

CITY           SKY/WX    TMP DP  RH WIND       PRES   REMARKS
QUINCY         CLEAR     73  69  87 N10       30.06R
GALESBURG*     CLEAR     69  67  93 N9        30.07S
MACOMB*        CLEAR     71  69  93 N7        30.08S
JACKSONVILLE*  CLEAR     76  74  93 N6        30.03S
PITTSFIELD*    CLEAR     76  71  85 N7        30.05R
$$

ILZ028>032-037-038-041>044-048-051>054-059>061-231100-
CENTRAL ILLINOIS

CITY           SKY/WX    TMP DP  RH WIND       PRES   REMARKS
PONTIAC        CLEAR     72  68  88 NE10      30.05R
BLOOMINGTON    PTCLDY    72  66  83 NE14      30.05R
PEORIA         PTCLDY    76  68  76 NE6       30.04R
LACON*         CLEAR     71  65  81 NE5       30.04R
LINCOLN*       MOCLDY    76  74  92 CALM      29.98R FOG
SPRINGFIELD    PTCLDY    78  74  87 N8        30.01S HX  81
TAYLORVILLE    MOCLDY    72  70  94 CALM      30.00F
$$

ILZ033-039-045-046-055>057-062-063-231100-
EAST-CENTRAL ILLINOIS

CITY           SKY/WX    TMP DP  RH WIND       PRES   REMARKS
CHAMPAIGN      MOCLDY    73  70  90 W5        30.00F
RANTOUL*       MOCLDY    75  68  78 N12       30.02R
MATTOON        CLOUDY    76  69  79 W3        29.97F
PARIS*         CLOUDY    73  70  91 CALM      30.01F
$$

ILZ079-100>102-231100-
SOUTHWEST ILLINOIS

CITY           SKY/WX    TMP DP  RH WIND       PRES   REMARKS
ALTON          PTCLDY    76  75  97 CALM      30.01R
BELLEVILLE     CLOUDY    75  72  89 CALM      29.99S
CAHOKIA*       MOCLDY    78  72  81 CALM      29.99S HX  80
SPARTA*        CLOUDY    75  68  78 CALM      30.01F
$$

ILZ064>066-069>071-074>076-080>082-084>086-088>090-092>094-231100-
SOUTH-CENTRAL ILLINOIS

CITY           SKY/WX    TMP DP  RH WIND       PRES   REMARKS
CARBONDALE     LGT RAIN  73  68  84 S3        30.02S
CAIRO*         PTCLDY    69  66  90 CALM      30.04R FOG
MARION         MOCLDY    75  68  78 SW5       30.03R
MT. VERNON     CLOUDY    75  66  73 S6        30.01F
CENTRALIA*     CLOUDY    74  67  79 SW5       30.01R
SALEM*         CLOUDY    77  71  83 CALM      30.00F
METROPOLIS*      N/A     69  67  96 CALM      30.02F FOG
$$

ILZ067-068-072-073-078-083-087-091-231100-
SOUTHEAST ILLINOIS

CITY           SKY/WX    TMP DP  RH WIND       PRES   REMARKS
FLORA*         PTCLDY    72  69  90 SE3       29.99F
FAIRFIELD*     CLOUDY    73  72  94 CALM      30.01S FOG
HARRISBURG*    PTCLDY    68  68 100 CALM      30.03R FOG
ROBINSON*      MOCLDY    73  71  93 SE3       30.01F FOG
CARMI*         PTCLDY    68  67  98 CALM      30.02R FOG
$$

ABBREVIATIONS USED IN REMARKS
   TC - TEMPERATURE IN CELSIUS
  WCI - WIND CHILL INDEX
   HX - HEAT INDEX
  VSB - VISIBILITY
$$




USA.gov is the U.S. government's official web portal to all federal, state and local government web resources and services.